User: anonymous   Login
Location: Unspecified
(0.0000°N, 0.0000°E)
Time: 22:59:20
(UTC+00:00)
Language:

Tianhe-1 - Orbit

View from above orbital plane
View from above orbital plane
View from above satellite
View from above satellite

Ground track
Ground track

The orbit data is extracted from the following two-line orbital elements,

1 48274U 21035A   21167.68076955  .00003204  00000-0  38895-4 0  9995
2 48274  41.4700 286.2118 0008965 295.0929 203.3789 15.62395980  7619
Epoch (UTC): 16 June 2021 16:20:18
Eccentricity: 0.0008965
inclination: 41.4700°
perigee height: 374 km
apogee height: 387 km
right ascension of ascending node: 286.2118°
argument of perigee: 295.0929°
revolutions per day: 15.62395980
mean anomaly at epoch: 203.3789°
orbit number at epoch: 761

The dashed part of the orbit path shows where the satellite is in the earth's shadow,  

DLR